KB1GNF Weather Reports


time (UTC)temp
C
wind
direction
speed
KPH
gust
KPH
rain 1hr
cm
rain 24hr
cm
rain mn
cm
humidity
%
barometer
mb
20260510194003 22 297 1.6 8.0 0.00 0.30 0.08 60 1010.7
20260510193504 22 229 1.6 9.7 0.00 0.33 0.08 58 1010.7
20260510193006 22 300 0.0 9.7 0.00 0.36 0.08 61 1010.7
20260510192504 22 196 1.6 9.7 0.00 0.38 0.08 60 1010.6
20260510192004 22 285 0.0 4.8 0.00 0.38 0.08 62 1010.7
20260510191509 22 356 0.0 12.9 0.00 0.41 0.08 61 1010.7
20260510191005 22 76 4.8 12.9 0.00 0.43 0.08 59 1010.8
20260510190505 22 316 0.0 9.7 0.00 0.43 0.08 63 1010.9
20260510190005 22 229 0.0 4.8 0.00 0.46 0.08 64 1011.0
20260510185006 21 247 1.6 4.8 0.00 0.48 0.08 69 1011.0
20260510184003 20 335 1.6 8.0 0.00 0.51 0.08 69 1011.1
20260510183503 20 350 3.2 8.0 0.00 0.53 0.08 70 1011.1
20260510183007 19 307 0.0 3.2 0.00 0.53 0.08 72 1011.1
20260510182505 18 314 0.0 6.4 0.00 0.53 0.08 72 1011.1
20260510182003 19 3 3.2 11.3 0.00 0.56 0.08 72 1011.1
20260510181510 19 354 3.2 11.3 0.00 0.56 0.08 70 1011.0
20260510181004 20 149 1.6 12.9 0.00 0.58 0.08 69 1011.0
20260510180504 20 185 6.4 12.9 0.00 0.58 0.08 68 1010.9
20260510180006 21 193 8.0 16.1 0.00 0.58 0.08 66 1011.0
20260510175504 21 158 4.8 16.1 0.00 0.61 0.08 68 1011.0
20260510175006 21 95 4.8 14.5 0.00 0.61 0.08 71 1011.1
20260510174509 21 248 3.2 14.5 0.00 0.64 0.08 71 1011.1
20260510174007 20 217 3.2 9.7 0.00 0.66 0.08 69 1011.1
20260510173503 20 143 3.2 9.7 0.00 0.66 0.08 73 1011.2
20260510173004 19 131 4.8 11.3 0.00 0.69 0.08 72 1011.3
20260510172507 19 184 4.8 16.1 0.00 0.71 0.08 73 1011.4
20260510172008 18 197 8.0 19.3 0.00 0.71 0.08 74 1011.5
20260510171507 18 234 9.7 19.3 0.00 0.74 0.08 73 1011.5
20260510171004 18 252 6.4 14.5 0.00 0.74 0.08 74 1011.6
20260510170504 18 186 6.4 14.5 0.00 0.76 0.08 75 1011.6
20260510170006 18 159 4.8 11.3 0.00 0.79 0.08 76 1011.6
20260510165505 18 238 8.0 12.9 0.00 0.79 0.08 75 1011.7
20260510165004 18 162 6.4 12.9 0.00 0.81 0.08 76 1011.8
20260510164508 18 289 6.4 12.9 0.00 0.84 0.08 74 1012.0
20260510164007 18 234 3.2 11.3 0.00 0.86 0.08 73 1011.9
20260510163504 18 233 6.4 12.9 0.00 0.86 0.08 74 1011.9
20260510163009 18 159 6.4 14.5 0.00 0.89 0.08 73 1011.9
20260510161508 17 204 8.0 19.3 0.00 0.97 0.08 76 1011.9
20260510161004 17 207 11.3 16.1 0.00 0.99 0.08 76 1012.0
20260510160505 17 143 4.8 17.7 0.00 0.99 0.08 78 1012.0
20260510160009 17 209 6.4 17.7 0.00 1.02 0.08 78 1011.9
20260510155509 17 157 9.7 17.7 0.00 1.02 0.08 77 1012.0
20260510155004 17 203 8.0 17.7 0.00 1.04 0.08 80 1012.1
20260510154510 16 178 8.0 14.5 0.00 1.04 0.08 78 1012.2
20260510154008 16 177 3.2 14.5 0.00 1.07 0.08 82 1012.3
20260510153507 16 224 6.4 17.7 0.00 1.07 0.08 79 1012.2
20260510153010 16 276 8.0 17.7 0.00 1.09 0.08 81 1012.3
20260510152004 15 228 8.0 14.5 0.00 1.12 0.08 81 1012.2
20260510151004 15 165 3.2 11.3 0.00 1.12 0.08 84 1012.1
20260510150505 15 228 6.4 16.1 0.00 1.14 0.08 84 1012.2
20260510150012 15 233 8.0 16.1 0.00 1.14 0.08 83 1012.1
20260510145506 15 176 8.0 16.1 0.00 1.17 0.08 85 1012.1
20260510145005 14 161 8.0 12.9 0.00 1.19 0.08 85 1012.1
20260510144511 14 240 3.2 11.3 0.00 1.19 0.08 87 1012.1
20260510144006 13 245 3.2 14.5 0.00 1.19 0.08 87 1012.2
20260510143504 13 216 6.4 14.5 0.00 1.22 0.08 87 1012.3
20260510143015 13 147 4.8 11.3 0.00 1.22 0.08 88 1012.4
20260510142507 13 195 4.8 11.3 0.00 1.24 0.08 88 1012.4
20260510142010 13 135 4.8 11.3 0.00 1.24 0.08 89 1012.4
20260510140504 12 198 6.4 11.3 0.00 1.24 0.08 91 1012.4
20260510134515 12 164 4.8 12.9 0.00 1.27 0.08 91 1012.4
20260510134005 12 212 3.2 12.9 0.00 1.27 0.08 91 1012.2
20260510133505 12 196 6.4 11.3 0.00 1.27 0.08 92 1012.2
20260510133020 12 196 6.4 17.7 0.00 1.27 0.08 92 1012.2
20260510132505 11 195 8.0 17.7 0.00 1.27 0.08 93 1012.3
20260510132005 11 163 4.8 9.7 0.00 1.30 0.08 93 1012.3
20260510131518 11 184 4.8 11.3 0.00 1.30 0.08 93 1012.3
20260510131007 11 197 4.8 11.3 0.00 1.30 0.08 93 1012.3
20260510130506 11 217 6.4 11.3 0.00 1.30 0.08 93 1012.3
20260510130017 11 205 4.8 11.3 0.00 1.30 0.08 94 1012.3
20260510125504 11 226 3.2 8.0 0.00 1.30 0.08 94 1012.3
20260510125007 11 214 1.6 8.0 0.00 1.30 0.08 94 1012.1
20260510124515 11 198 1.6 6.4 0.00 1.30 0.08 94 1012.0
20260510124007 11 159 1.6 8.0 0.00 1.30 0.08 94 1011.9
20260510123018 11 213 3.2 8.0 0.00 1.32 0.08 94 1012.1
20260510122505 11 219 3.2 6.4 0.00 1.32 0.08 94 1012.1
20260510122007 11 199 1.6 3.2 0.00 1.32 0.08 95 1012.2
20260510121516 11 145 0.0 3.2 0.00 1.32 0.08 95 1012.2
20260510121007 11 212 1.6 3.2 0.00 1.32 0.08 95 1012.2
20260510120508 11 219 0.0 4.8 0.00 1.32 0.08 95 1012.2
20260510120030 11 199 1.6 8.0 0.00 1.32 0.08 95 1012.2
20260510115511 11 153 1.6 8.0 0.00 1.32 0.08 95 1012.2
20260510115007 11 123 0.0 6.4 0.00 1.32 0.08 95 1012.2
20260510114518 11 105 1.6 9.7 0.00 1.32 0.08 95 1012.1
20260510114008 11 210 3.2 9.7 0.00 1.32 0.08 95 1012.2
20260510113506 11 180 4.8 9.7 0.00 1.32 0.08 95 1012.3
20260510112513 11 172 1.6 3.2 0.00 1.37 0.08 95 1012.1
20260510112007 11 198 0.0 6.4 0.00 1.40 0.08 95 1012.0
20260510111517 10 226 1.6 8.0 0.00 1.40 0.08 95 1012.0
20260510111009 10 156 3.2 8.0 0.00 1.40 0.08 95 1011.9
20260510110508 10 195 3.2 8.0 0.00 1.42 0.08 96 1012.0
20260510110024 10 219 1.6 6.4 0.00 1.42 0.08 96 1011.8
20260510105503 10 244 3.2 6.4 0.00 1.42 0.08 96 1011.7
20260510105005 10 234 1.6 6.4 0.00 1.42 0.08 96 1011.5
20260510104004 10 155 1.6 3.2 0.00 1.42 0.08 96 1011.5
20260510103505 10 279 0.0 4.8 0.00 1.42 0.08 96 1011.4
20260510103016 10 152 0.0 4.8 0.00 1.42 0.08 96 1011.4
20260510102503 10 148 0.0 3.2 0.00 1.42 0.08 96 1011.3
20260510102003 10 155 0.0 3.2 0.00 1.42 0.08 96 1011.3
20260510101502 10 139 0.0 3.2 0.00 1.42 0.08 96 1011.2
20260510101002 10 86 0.0 3.2 0.00 1.42 0.08 96 1011.2
20260510100502 10 134 0.0 4.8 0.00 1.42 0.08 96 1011.1
20260510100004 10 165 1.6 4.8 0.00 1.42 0.08 96 1010.8
20260510095504 10 157 1.6 4.8 0.00 1.42 0.08 96 1011.1
20260510095003 10 195 1.6 3.2 0.00 1.42 0.08 96 1011.1
20260510094521 10 222 0.0 4.8 0.00 1.42 0.08 96 1010.9
20260510094007 10 162 0.0 4.8 0.00 1.42 0.08 96 1010.6
20260510093504 10 162 0.0 4.8 0.00 1.42 0.08 96 1010.4
20260510093013 10 143 1.6 4.8 0.00 1.42 0.08 96 1010.5
20260510092506 10 158 1.6 11.3 0.00 1.42 0.08 97 1010.7
20260510092005 10 160 3.2 12.9 0.00 1.42 0.08 97 1010.4
20260510091520 10 153 8.0 12.9 0.00 1.42 0.08 97 1010.4
20260510091002 10 216 4.8 9.7 0.00 1.42 0.08 97 1010.5
20260510090503 10 173 3.2 9.7 0.00 1.42 0.08 97 1010.6
20260510090004 10 175 4.8 8.0 0.00 1.42 0.08 97 1010.6
20260510085502 10 167 3.2 8.0 0.00 1.42 0.08 97 1010.4
20260510085004 10 171 3.2 11.3 0.00 1.42 0.08 97 1010.8
20260510084504 10 207 6.4 11.3 0.00 1.42 0.08 97 1010.9
20260510084004 10 143 3.2 9.7 0.00 1.42 0.08 97 1010.9
20260510083506 10 192 3.2 11.3 0.00 1.42 0.08 97 1010.9
20260510083009 10 213 4.8 11.3 0.00 1.42 0.08 97 1010.9
20260510082504 10 121 3.2 11.3 0.00 1.42 0.08 97 1011.0
20260510082006 10 241 4.8 9.7 0.00 1.42 0.08 97 1011.2
20260510081512 10 199 4.8 11.3 0.00 1.42 0.08 98 1011.2
20260510081005 10 229 3.2 11.3 0.00 1.42 0.08 98 1011.2
20260510080506 10 196 4.8 9.7 0.00 1.42 0.08 98 1011.2
20260510080017 10 212 3.2 8.0 0.00 1.42 0.08 98 1011.2
20260510075511 10 177 3.2 8.0 0.00 1.42 0.08 98 1011.0
20260510075002 9 201 1.6 3.2 0.00 1.42 0.08 97 1011.0
20260510074004 9 94 0.0 0.0 0.00 1.42 0.08 97 1011.0
20260510073503 9 94 0.0 0.0 0.00 1.42 0.08 97 1010.8
20260510073006 9 94 0.0 0.0 0.00 1.42 0.08 97 1010.9
20260510072005 9 94 0.0 0.0 0.00 1.42 0.08 97 1010.9
20260510071510 9 94 0.0 0.0 0.00 1.42 0.08 97 1010.8
20260510071007 9 95 0.0 0.0 0.00 1.42 0.08 97 1010.7
20260510070505 9 146 0.0 0.0 0.00 1.42 0.08 97 1010.7
20260510070014 9 117 0.0 0.0 0.00 1.42 0.08 97 1010.7
20260510065506 9 176 0.0 0.0 0.00 1.42 0.08 97 1010.6
20260510065007 9 156 0.0 0.0 0.00 1.42 0.08 97 1010.6
20260510064519 9 167 0.0 1.6 0.00 1.42 0.08 97 1010.6
20260510064012 9 165 0.0 1.6 0.00 1.42 0.08 97 1010.5
20260510062503 9 75 0.0 4.8 0.00 1.42 0.08 97 1010.4
20260510061508 9 107 1.6 4.8 0.00 1.42 0.08 97 1010.7
20260510061005 9 105 0.0 1.6 0.00 1.42 0.08 97 1010.9
20260510060025 9 193 0.0 3.2 0.00 1.42 0.08 97 1011.0
20260510055505 9 204 0.0 0.0 0.00 1.42 0.08 97 1010.9
20260510055009 9 198 0.0 0.0 0.00 1.42 0.08 97 1010.8
20260510054516 9 198 0.0 0.0 0.00 1.42 0.08 97 1010.7
20260510053020 9 198 0.0 0.0 0.00 1.42 0.08 97 1010.8
20260510052510 9 198 0.0 0.0 0.03 1.42 0.08 97 1010.9
20260510052010 9 198 0.0 0.0 0.03 1.42 0.08 97 1010.8
20260510051505 9 198 0.0 0.0 0.05 1.42 0.08 97 1010.8
20260510050007 9 198 0.0 0.0 0.08 1.42 0.08 97 1010.7
20260510045004 9 177 0.0 3.2 0.08 1.42 0.08 97 1011.0
20260510044514 9 207 0.0 3.2 0.08 1.42 0.08 97 1011.0
20260510044004 9 174 0.0 0.0 0.08 1.42 0.08 97 1011.1
20260510043019 9 109 0.0 0.0 0.08 1.42 0.08 97 1011.0
20260510042009 9 105 0.0 0.0 0.05 1.40 0.05 97 1011.0
20260510041529 9 104 0.0 0.0 0.03 1.37 0.03 97 1011.0
20260510041014 9 117 0.0 0.0 0.03 1.37 0.03 97 1011.1
20260510040511 9 106 0.0 0.0 0.00 1.32 0.00 97 1011.0
20260510040007 9 101 0.0 0.0 0.00 1.32 0.00 97 1011.0
20260510035007 9 214 0.0 0.0 0.00 1.32 1.32 97 1011.0
20260510034512 9 214 0.0 0.0 0.00 1.32 1.32 97 1010.9
20260510034003 8 214 0.0 0.0 0.00 1.32 1.32 97 1010.9
20260510033014 8 145 0.0 0.0 0.00 1.32 1.32 97 1010.9
20260510032009 8 146 0.0 0.0 0.00 1.32 1.32 97 1010.8
20260510031518 8 146 0.0 0.0 0.00 1.32 1.32 97 1010.8
20260510030021 8 146 0.0 0.0 0.00 1.32 1.32 97 1011.1
20260510025511 8 146 0.0 0.0 0.00 1.32 1.32 97 1011.0
20260510025014 8 146 0.0 0.0 0.00 1.32 1.32 97 1011.1
20260510024528 8 145 0.0 0.0 0.00 1.32 1.32 97 1011.1
20260510023030 8 146 0.0 0.0 0.00 1.32 1.32 97 1011.2
20260510021519 8 146 0.0 0.0 0.00 1.32 1.32 97 1011.6
20260510020508 8 146 0.0 0.0 0.00 1.32 1.32 97 1011.6
20260510020020 8 158 0.0 1.6 0.00 1.32 1.32 97 1011.8
20260510015509 8 158 0.0 1.6 0.00 1.32 1.32 97 1011.8
20260510014523 8 139 0.0 0.0 0.00 1.32 1.32 97 1011.9
20260510014010 8 103 0.0 1.6 0.00 1.32 1.32 97 1011.8
20260510013511 8 103 0.0 1.6 0.00 1.32 1.32 96 1011.6
20260510013027 8 103 0.0 1.6 0.00 1.32 1.32 96 1011.4
20260510011520 8 18 0.0 1.6 0.00 1.32 1.32 96 1011.6
20260510011012 8 18 0.0 0.0 0.00 1.32 1.32 96 1011.5
20260510010506 8 18 0.0 0.0 0.00 1.32 1.32 96 1011.4
20260510010025 8 18 0.0 1.6 0.00 1.32 1.32 96 1011.2
20260510004524 8 355 0.0 3.2 0.00 1.32 1.32 96 1011.0
20260510003027 9 351 0.0 1.6 0.00 1.32 1.32 96 1010.9
20260510002508 9 133 0.0 1.6 0.00 1.32 1.32 96 1010.9
20260510002011 9 133 0.0 1.6 0.00 1.32 1.32 96 1010.9
20260510001528 9 133 0.0 1.6 0.00 1.32 1.32 96 1010.8
20260510001012 9 133 0.0 3.2 0.00 1.32 1.32 96 1010.8
20260510000016 9 150 1.6 3.2 0.00 1.32 1.32 96 1010.8
20260509234011 9 186 0.0 0.0 0.00 1.32 1.32 96 1011.0
20260509233022 9 101 0.0 0.0 0.00 1.32 1.32 96 1010.8
20260509232006 9 101 0.0 0.0 0.00 1.32 1.32 96 1010.9
20260509231508 9 101 0.0 0.0 0.00 1.32 1.32 96 1010.8
20260509224519 9 98 0.0 0.0 0.00 1.32 1.32 95 1010.8
20260509224010 9 98 0.0 0.0 0.00 1.32 1.32 96 1010.8
20260509223511 9 97 0.0 0.0 0.00 1.32 1.32 95 1010.8
20260509223004 9 88 0.0 0.0 0.00 1.32 1.32 95 1010.8
20260509220505 9 92 0.0 0.0 0.03 1.32 1.32 95 1010.6
20260509215505 9 88 0.0 0.0 0.03 1.32 1.32 95 1010.7
20260509214007 8 23 0.0 0.0 0.05 1.32 1.32 95 1010.7
20260509213505 8 18 0.0 0.0 0.05 1.32 1.32 95 1010.9
20260509212508 8 18 0.0 6.4 0.08 1.32 1.32 95 1011.1
20260509204007 8 96 1.6 3.2 0.18 1.30 1.30 95 1011.6
20260509203506 8 166 0.0 1.6 0.20 1.30 1.30 95 1011.8
20260509202509 8 231 0.0 3.2 0.23 1.27 1.27 95 1012.0
20260509200507 8 32 0.0 0.0 0.23 1.22 1.22 95 1011.8
20260509200025 8 32 0.0 0.0 0.23 1.19 1.19 95 1011.7
20260509195004 8 352 0.0 0.0 0.20 1.14 1.14 95 1011.9
20260509194510 8 352 0.0 0.0 0.20 1.12 1.12 95 1011.9